#�ϑ�����,���ϕ���,���ϕ���,�ő啗��,�ő啗����������,�ő�u�ԕ���,�ő�u�ԕ�����������
#(�N����),(m/s)   ,(16����),(m/s)   ,(16����)        ,(m/s)       ,(16����)            
2015/5/21 0:01,2.4,15,2.4,15,6.2,16
2015/5/21 0:02,2.4,15,2.4,15,4.7,15
2015/5/21 0:03,2.6,15,2.6,15,4.2,14
2015/5/21 0:04,2.6,15,2.6,15,3.3,15
2015/5/21 0:05,2.5,15,2.6,15,4.3,16
2015/5/21 0:06,2.4,15,2.5,15,4.7,15
2015/5/21 0:07,2.5,15,2.5,15,5.1,15
2015/5/21 0:08,2.7,16,2.7,16,3.7,14
2015/5/21 0:09,2.7,15,2.7,16,2.7,16
2015/5/21 0:10,2.5,16,2.7,16,3.1,14
2015/5/21 0:11,2.7,15,2.7,16,7.9,14
2015/5/21 0:12,3,15,3,15,9.9,15
2015/5/21 0:13,3.1,16,3.1,16,5.1,16
2015/5/21 0:14,3.2,16,3.2,16,2.9,2
2015/5/21 0:15,3.2,16,3.2,16,6.9,16
2015/5/21 0:16,3.4,16,3.4,16,10.1,14
2015/5/21 0:17,3.4,16,3.4,16,7.1,15
2015/5/21 0:18,3.3,16,3.4,16,4.2,16
2015/5/21 0:19,3.5,16,3.5,16,5,15
2015/5/21 0:20,3.5,16,3.5,16,4.8,1
2015/5/21 0:21,3,16,3.4,16,2.1,5
2015/5/21 0:22,2.7,16,2.9,16,3.3,1
2015/5/21 0:23,2.5,1,2.7,16,2.6,5
2015/5/21 0:24,2.4,16,2.5,16,2.2,15
2015/5/21 0:25,2.2,16,2.3,16,2.4,15
2015/5/21 0:26,1.8,16,2.2,16,2,1
2015/5/21 0:27,1.5,1,1.8,16,3.1,4
2015/5/21 0:28,1.5,2,1.5,16,3.7,6
2015/5/21 0:29,1.4,2,1.6,16,3.5,4
2015/5/21 0:30,1.4,2,1.4,16,2.7,2
2015/5/21 0:31,1.3,2,1.4,16,1.5,1
2015/5/21 0:32,1.2,2,1.3,16,1.3,7
2015/5/21 0:33,1.1,3,1.2,1,1,5
2015/5/21 0:34,1,4,1.1,16,0.6,10
2015/5/21 0:35,1,5,1,16,1.6,9
2015/5/21 0:36,1,6,1,16,1.8,9
2015/5/21 0:37,1,6,1,2,2.5,9
2015/5/21 0:38,0.9,8,1,2,2.1,10
2015/5/21 0:39,0.8,9,0.9,2,1.8,13
2015/5/21 0:40,0.8,10,0.8,2,1.9,10
2015/5/21 0:41,1,9,1,2,3.2,9
2015/5/21 0:42,1.1,10,1.1,2,3.2,9
2015/5/21 0:43,1.2,10,1.2,10,3.2,9
2015/5/21 0:44,1.3,10,1.3,10,2.6,10
2015/5/21 0:45,1.3,10,1.3,10,2.1,6
2015/5/21 0:46,1.3,10,1.3,10,1.3,10
2015/5/21 0:47,1.3,10,1.3,10,2.9,10
2015/5/21 0:48,1.3,10,1.3,10,2.5,10
2015/5/21 0:49,1.2,10,1.3,10,1.5,7
2015/5/21 0:50,1.3,10,1.3,10,2.2,9
2015/5/21 0:51,1.3,10,1.3,10,3.7,14
2015/5/21 0:52,1.2,10,1.3,10,3,4
2015/5/21 0:53,1.3,11,1.3,10,7.7,15
2015/5/21 0:54,1.4,12,1.4,11,7.1,15
2015/5/21 0:55,1.8,13,1.8,13,6.4,16
2015/5/21 0:56,2.1,14,2.1,14,6.4,1
2015/5/21 0:57,2.2,16,2.3,15,4.9,1
2015/5/21 0:58,2.2,16,2.2,15,1.3,16
2015/5/21 0:59,2.2,16,2.2,15,3.7,16
2015/5/21 1:00,2.2,16,2.2,15,4.7,15
2015/5/21 1:01,2.1,1,2.2,15,1.5,4
2015/5/21 1:02,2.2,1,2.2,15,3.2,2
2015/5/21 1:03,2,1,2.2,15,3.3,16
2015/5/21 1:04,2.1,1,2.1,15,4.5,1
2015/5/21 1:05,2,1,2.1,15,5.4,1
2015/5/21 1:06,1.9,1,2,15,6.8,1
2015/5/21 1:07,1.8,1,1.9,16,4.4,1
2015/5/21 1:08,2,1,2,16,2.6,2
2015/5/21 1:09,2,1,2,16,3,3
2015/5/21 1:10,2.1,2,2.1,16,3.5,3
2015/5/21 1:11,2.2,2,2.2,1,3,2
2015/5/21 1:12,2.2,1,2.2,1,3.1,16
2015/5/21 1:13,2.2,1,2.2,1,3.2,14
2015/5/21 1:14,2,1,2.2,1,2.5,11
2015/5/21 1:15,1.9,1,2,1,3.9,10
2015/5/21 1:16,1.8,1,1.9,1,4.5,14
2015/5/21 1:17,2,16,2,1,9.5,15
2015/5/21 1:18,2.1,16,2.1,1,6.4,13
2015/5/21 1:19,2.1,16,2.1,1,2,16
2015/5/21 1:20,2.1,15,2.1,1,5,12
2015/5/21 1:21,2.4,15,2.4,15,8.5,1
2015/5/21 1:22,2.8,15,2.8,15,9.8,14
2015/5/21 1:23,3,15,3,15,8.4,15
2015/5/21 1:24,3.2,15,3.2,15,5.6,15
2015/5/21 1:25,3.5,15,3.5,15,9.3,15
2015/5/21 1:26,3.9,15,3.9,15,9.8,16
2015/5/21 1:27,3.7,15,3.9,15,7.4,1
2015/5/21 1:28,3.6,16,3.7,15,2.2,1
2015/5/21 1:29,3.7,15,3.7,15,3.9,16
2015/5/21 1:30,3.7,16,3.7,15,3.9,14
2015/5/21 1:31,3.5,16,3.7,15,5.6,2
2015/5/21 1:32,3.4,16,3.5,15,7.7,14
2015/5/21 1:33,3.4,16,3.5,15,9.4,16
2015/5/21 1:34,3.4,16,3.4,15,7,1
2015/5/21 1:35,3.2,16,3.4,15,7.4,1
2015/5/21 1:36,2.9,16,3.2,15,3.1,14
2015/5/21 1:37,2.9,16,2.9,15,7,15
2015/5/21 1:38,3.1,16,3.1,15,5.2,15
2015/5/21 1:39,2.9,15,3.1,15,1.8,14
2015/5/21 1:40,3.1,16,3.1,16,6.4,16
2015/5/21 1:41,3.2,16,3.2,16,9.1,16
2015/5/21 1:42,2.9,16,3.1,16,3.5,12
2015/5/21 1:43,2.8,16,2.9,16,6.4,15
2015/5/21 1:44,2.8,16,2.8,16,5.6,14
2015/5/21 1:45,2.8,15,2.8,16,7.2,14
2015/5/21 1:46,3,16,3,16,10,15
2015/5/21 1:47,3,16,3.1,16,7.2,16
2015/5/21 1:48,3,16,3,16,3.3,15
2015/5/21 1:49,3.4,16,3.4,16,6.3,15
2015/5/21 1:50,3.4,15,3.5,16,8.5,15
2015/5/21 1:51,3.2,15,3.4,16,6.1,15
2015/5/21 1:52,3.3,15,3.3,16,4.7,16
2015/5/21 1:53,3.3,15,3.4,16,6.8,1
2015/5/21 1:54,3.4,15,3.5,16,6.8,1
2015/5/21 1:55,3.4,16,3.5,16,7,15
2015/5/21 1:56,3.4,16,3.4,16,5.7,15
2015/5/21 1:57,3.3,15,3.4,16,6.1,15
2015/5/21 1:58,3.7,15,3.7,15,9,16
2015/5/21 1:59,3.9,15,3.9,15,11.7,15
2015/5/21 2:00,3.8,15,3.9,15,6.8,1
2015/5/21 2:01,3.9,15,3.9,15,6.7,13
2015/5/21 2:02,4.1,15,4.1,15,8.4,14
2015/5/21 2:03,4.1,15,4.1,15,6.3,12
2015/5/21 2:04,4.1,14,4.1,15,4.5,11
2015/5/21 2:05,4,14,4.1,15,4.2,16
2015/5/21 2:06,4,14,4,15,5.2,15
2015/5/21 2:07,3.9,14,4,15,5.4,14
2015/5/21 2:08,3.6,14,3.9,15,5.6,15
2015/5/21 2:09,3.2,14,3.6,15,3.1,16
2015/5/21 2:10,3,14,3.2,15,2.5,12
2015/5/21 2:11,2.9,14,3,15,3.8,15
2015/5/21 2:12,2.8,14,2.9,15,4.9,1
2015/5/21 2:13,2.7,15,2.8,15,4.9,16
2015/5/21 2:14,2.6,15,2.7,14,3.8,11
2015/5/21 2:15,2.5,14,2.6,14,2.6,11
2015/5/21 2:16,2.3,14,2.5,14,3.3,14
2015/5/21 2:17,2.1,14,2.3,14,1.1,16
2015/5/21 2:18,1.8,14,2.1,14,2,14
2015/5/21 2:19,1.9,13,1.9,14,3.6,12
2015/5/21 2:20,2,13,2,14,3.2,12
2015/5/21 2:21,2,13,2,14,4.9,14
2015/5/21 2:22,1.9,13,2,14,3.9,16
2015/5/21 2:23,1.9,13,1.9,15,4.1,15
2015/5/21 2:24,1.9,14,1.9,15,4.2,15
2015/5/21 2:25,2,14,2,14,3.3,16
2015/5/21 2:26,2.1,14,2.1,14,4.2,15
2015/5/21 2:27,2.3,15,2.3,15,4.2,15
2015/5/21 2:28,2.4,15,2.4,15,2.6,15
2015/5/21 2:29,2.3,15,2.4,15,2.4,16
2015/5/21 2:30,2.2,15,2.3,15,2.6,15
2015/5/21 2:31,2.2,15,2.3,15,3,13
2015/5/21 2:32,2.2,15,2.2,15,2.5,13
2015/5/21 2:33,2.1,15,2.2,15,2.4,14
2015/5/21 2:34,2.1,14,2.1,15,2.4,13
2015/5/21 2:35,2,14,2.1,15,2.9,13
2015/5/21 2:36,1.8,14,2,15,1.3,15
2015/5/21 2:37,1.5,14,1.7,15,1.4,14
2015/5/21 2:38,1.5,14,1.5,15,3.1,13
2015/5/21 2:39,1.6,14,1.6,15,4.1,14
2015/5/21 2:40,1.7,15,1.7,15,3.7,1
2015/5/21 2:41,1.6,15,1.7,15,2.7,14
2015/5/21 2:42,1.7,15,1.7,15,3.7,2
2015/5/21 2:43,1.7,16,1.7,15,3,16
2015/5/21 2:44,1.6,16,1.7,14,2.1,3
2015/5/21 2:45,1.5,16,1.6,14,2,13
2015/5/21 2:46,1.6,16,1.6,14,3.3,15
2015/5/21 2:47,1.7,15,1.7,14,2.9,15
2015/5/21 2:48,1.7,15,1.7,14,2.4,14
2015/5/21 2:49,1.7,15,1.7,14,3.6,14
2015/5/21 2:50,1.7,15,1.7,15,3.8,15
2015/5/21 2:51,1.6,15,1.7,15,1.6,13
2015/5/21 2:52,1.5,14,1.6,15,2.1,13
2015/5/21 2:53,1.4,14,1.5,16,1.9,14
2015/5/21 2:54,1.5,14,1.5,16,2.2,15
2015/5/21 2:55,1.5,14,1.5,16,1.8,14
2015/5/21 2:56,1.4,14,1.5,16,1.4,16
2015/5/21 2:57,1.4,14,1.4,15,3,15
2015/5/21 2:58,1.6,15,1.6,15,7.5,15
2015/5/21 2:59,1.9,15,1.9,15,8.2,15
2015/5/21 3:00,2.2,15,2.2,15,10.7,16
2015/5/21 3:01,2.4,15,2.4,15,6.1,15
2015/5/21 3:02,2.7,15,2.7,15,7.4,15
2015/5/21 3:03,3,15,3,15,8.1,16
2015/5/21 3:04,3.2,15,3.2,15,7.2,16
2015/5/21 3:05,3.4,15,3.4,15,5.8,15
2015/5/21 3:06,3.8,15,3.8,15,7,15
2015/5/21 3:07,4,15,4,15,6.8,15
2015/5/21 3:08,3.9,15,4,15,4.1,16
2015/5/21 3:09,3.7,15,3.9,15,3.8,15
2015/5/21 3:10,3.2,15,3.7,15,1.9,3
2015/5/21 3:11,3,15,3.2,15,1.3,4
2015/5/21 3:12,2.8,15,3,15,3.6,14
2015/5/21 3:13,2.6,15,2.8,15,4.8,16
2015/5/21 3:14,2.4,15,2.6,15,3.8,15
2015/5/21 3:15,2.5,15,2.5,15,4.1,15
2015/5/21 3:16,2.3,16,2.5,15,6.4,16
2015/5/21 3:17,2.4,15,2.4,15,8.6,16
2015/5/21 3:18,2.7,16,2.7,15,9.4,15
2015/5/21 3:19,2.9,16,2.9,15,6.5,16
2015/5/21 3:20,3.1,16,3.1,15,4.9,1
2015/5/21 3:21,3.2,16,3.2,16,4.5,16
2015/5/21 3:22,3.2,16,3.3,16,2.9,16
2015/5/21 3:23,3.1,16,3.2,16,2.5,15
2015/5/21 3:24,3,16,3.1,16,2.5,16
2015/5/21 3:25,2.8,16,3,16,1.1,16
2015/5/21 3:26,2.5,16,2.7,16,0.8,2
2015/5/21 3:27,2.2,16,2.4,16,1.5,2
2015/5/21 3:28,1.7,16,2.1,16,2.1,13
2015/5/21 3:29,1.4,16,1.7,16,2.5,14
2015/5/21 3:30,1.3,16,1.4,16,2.6,14
2015/5/21 3:31,1.2,16,1.2,16,2.6,4
2015/5/21 3:32,1.2,1,1.2,16,2.1,6
2015/5/21 3:33,1,1,1.1,16,0.8,8
2015/5/21 3:34,1.1,2,1.1,16,2.4,10
2015/5/21 3:35,1,3,1.1,16,1.1,10
2015/5/21 3:36,1.1,2,1.1,16,1,4
2015/5/21 3:37,1.1,16,1.1,16,1.8,15
2015/5/21 3:38,1.1,16,1.1,16,1.8,16
2015/5/21 3:39,0.9,16,1,16,0.9,12
2015/5/21 3:40,0.8,14,0.9,16,0.5,14
2015/5/21 3:41,0.7,14,0.8,16,1.3,9
2015/5/21 3:42,0.6,13,0.7,1,1.5,9
2015/5/21 3:43,0.8,14,0.8,1,3.8,14
2015/5/21 3:44,0.8,14,0.8,2,3.7,16
2015/5/21 3:45,1,14,1,2,2.7,15
2015/5/21 3:46,1.1,14,1.1,2,1.8,14
2015/5/21 3:47,1,14,1.1,16,1.1,9
2015/5/21 3:48,0.9,14,1,14,0.6,2
2015/5/21 3:49,0.9,14,0.9,14,0.8,1
2015/5/21 3:50,0.9,15,0.9,14,1.5,14
2015/5/21 3:51,1,14,1,14,1.5,14
2015/5/21 3:52,1,15,1,14,1.4,8
2015/5/21 3:53,0.9,15,1,14,1.3,14
2015/5/21 3:54,0.8,16,0.8,14,1.9,3
2015/5/21 3:55,0.8,16,0.8,14,3.3,15
2015/5/21 3:56,0.9,16,0.9,14,3.9,16
2015/5/21 3:57,0.9,1,0.9,14,1.6,15
2015/5/21 3:58,1,1,1,15,2,5
2015/5/21 3:59,1.1,1,1.1,1,1.6,5
2015/5/21 4:00,1,2,1.1,1,0.5,5
2015/5/21 4:01,1.2,3,1.2,3,5.2,9
2015/5/21 4:02,1.2,2,1.2,3,3.9,14
2015/5/21 4:03,1.5,2,1.5,2,4.2,15
2015/5/21 4:04,1.5,16,1.5,2,3.1,15
2015/5/21 4:05,1.4,14,1.5,2,1.4,15
2015/5/21 4:06,1.2,12,1.4,2,1.1,8
2015/5/21 4:07,1.3,12,1.3,2,1.8,15
2015/5/21 4:08,1.2,13,1.3,2,1.1,15
2015/5/21 4:09,1.2,13,1.2,2,1.1,13
2015/5/21 4:10,1.2,14,1.2,2,1.1,13
2015/5/21 4:11,1.1,14,1.2,2,1.8,12
2015/5/21 4:12,1,14,1.1,2,2.1,11
2015/5/21 4:13,0.8,14,1,1,1.5,2
2015/5/21 4:14,0.7,14,0.8,15,1,15
2015/5/21 4:15,0.7,14,0.8,14,0.8,14
2015/5/21 4:16,0.8,14,0.8,12,1.4,8
2015/5/21 4:17,0.7,14,0.8,12,1.9,7
2015/5/21 4:18,0.7,14,0.7,13,1.8,8
2015/5/21 4:19,0.8,12,0.8,13,2,8
2015/5/21 4:20,0.9,10,0.9,14,2.1,8
2015/5/21 4:21,0.9,10,1,14,1.8,9
2015/5/21 4:22,0.9,10,0.9,14,2.1,10
2015/5/21 4:23,1,10,1,11,1.8,12
2015/5/21 4:24,1,10,1,11,1.4,10
2015/5/21 4:25,1.1,10,1.1,10,2.1,16
2015/5/21 4:26,1.1,10,1.1,10,2.7,15
2015/5/21 4:27,1.2,10,1.2,10,3.2,4
2015/5/21 4:28,1.3,11,1.3,11,3.8,16
2015/5/21 4:29,1.4,12,1.4,12,7.5,16
2015/5/21 4:30,1.8,13,1.8,13,7.2,1
2015/5/21 4:31,2.2,13,2.2,13,9,16
2015/5/21 4:32,2.3,14,2.3,13,5.8,16
2015/5/21 4:33,2.3,15,2.3,13,4.2,16
2015/5/21 4:34,2.5,15,2.5,15,5,15
2015/5/21 4:35,2.7,16,2.7,16,4.7,14
2015/5/21 4:36,2.8,16,2.8,16,6.4,16
2015/5/21 4:37,3.1,16,3.1,16,6.8,16
2015/5/21 4:38,3.3,16,3.3,16,4.5,13
2015/5/21 4:39,3.4,16,3.4,16,8.7,14
2015/5/21 4:40,3.4,15,3.5,16,9.5,14
2015/5/21 4:41,3.3,15,3.4,16,6.1,14
2015/5/21 4:42,3.2,15,3.2,16,3.1,16
2015/5/21 4:43,3.3,15,3.3,16,4.3,1
2015/5/21 4:44,3.4,15,3.4,16,6.5,16
2015/5/21 4:45,3.7,15,3.7,15,8.9,14
2015/5/21 4:46,3.9,15,3.9,15,8.4,14
2015/5/21 4:47,3.7,15,3.9,15,4.7,15
2015/5/21 4:48,3.7,15,3.8,15,5.7,16
2015/5/21 4:49,3.5,15,3.7,15,4.4,14
2015/5/21 4:50,3.1,15,3.5,15,2.1,3
2015/5/21 4:51,2.9,15,3.1,15,4.8,15
2015/5/21 4:52,3.3,15,3.3,15,8.6,15
2015/5/21 4:53,3.4,15,3.4,15,8.2,15
2015/5/21 4:54,3.3,15,3.4,15,5.1,13
2015/5/21 4:55,3,15,3.3,15,4.2,13
2015/5/21 4:56,3,15,3,15,6.8,1
2015/5/21 4:57,2.9,15,3,15,5.4,1
2015/5/21 4:58,3,16,3,15,5.2,16
2015/5/21 4:59,3,16,3,15,5.2,15
2015/5/21 5:00,3.2,16,3.2,15,5.6,16
2015/5/21 5:01,3.1,16,3.2,15,3.2,15
2015/5/21 5:02,2.8,16,3.1,15,5.8,16
2015/5/21 5:03,2.6,16,2.9,15,3.7,14
2015/5/21 5:04,2.4,16,2.6,15,3.3,1
2015/5/21 5:05,2.5,16,2.5,16,4.5,15
2015/5/21 5:06,2.4,15,2.5,16,4.5,16
2015/5/21 5:07,2.2,15,2.3,16,3.6,13
2015/5/21 5:08,2,15,2.2,16,1.5,13
2015/5/21 5:09,1.8,15,2,16,1,5
2015/5/21 5:10,1.7,15,1.8,15,3,15
2015/5/21 5:11,1.9,15,1.9,16,4.8,14
2015/5/21 5:12,2,15,2,16,4.9,12
2015/5/21 5:13,2.3,15,2.3,16,7,15
2015/5/21 5:14,2.3,15,2.3,16,3.3,16
2015/5/21 5:15,2.4,15,2.4,16,6.1,16
2015/5/21 5:16,2.2,16,2.3,15,3.6,2
2015/5/21 5:17,2.2,16,2.2,15,3.1,1
2015/5/21 5:18,2.4,16,2.4,15,4.3,16
2015/5/21 5:19,2.4,16,2.4,15,1.8,14
2015/5/21 5:20,2.4,15,2.4,15,2,13
2015/5/21 5:21,2.1,15,2.4,15,1.5,3
2015/5/21 5:22,1.9,16,2.1,15,1.6,1
2015/5/21 5:23,1.7,16,1.9,15,2.5,1
2015/5/21 5:24,1.6,16,1.7,15,2.2,2
2015/5/21 5:25,1.3,16,1.6,16,1.5,15
2015/5/21 5:26,1.3,16,1.3,16,2.1,16
2015/5/21 5:27,1.2,15,1.3,16,2,15
2015/5/21 5:28,1.1,15,1.2,16,2.9,15
2015/5/21 5:29,1.2,15,1.2,16,3.1,16
2015/5/21 5:30,1.1,16,1.2,15,1.3,1
2015/5/21 5:31,1.2,16,1.2,15,2.5,13
2015/5/21 5:32,1.1,16,1.2,16,1.9,16
2015/5/21 5:33,1.1,16,1.1,16,1.4,1
2015/5/21 5:34,1.1,16,1.1,16,1.6,16
2015/5/21 5:35,1.2,16,1.2,16,3.7,15
2015/5/21 5:36,1.2,16,1.3,16,3.9,15
2015/5/21 5:37,1.4,16,1.4,16,3.8,16
2015/5/21 5:38,1.5,16,1.5,16,3.8,13
2015/5/21 5:39,1.6,16,1.6,16,3.9,15
2015/5/21 5:40,1.8,16,1.8,16,6.1,15
2015/5/21 5:41,2.1,16,2.1,16,5.8,15
2015/5/21 5:42,2.3,16,2.3,16,4.1,16
2015/5/21 5:43,2.4,15,2.4,16,4.3,15
2015/5/21 5:44,2.6,15,2.6,15,4.9,15
2015/5/21 5:45,2.6,15,2.6,15,3.3,16
2015/5/21 5:46,2.6,15,2.6,15,2.6,13
2015/5/21 5:47,2.5,15,2.6,15,2.5,14
2015/5/21 5:48,2.3,15,2.5,15,2,16
2015/5/21 5:49,2.3,15,2.4,15,3.3,14
2015/5/21 5:50,2,15,2.3,15,2,15
2015/5/21 5:51,1.8,15,2,15,3.1,14
2015/5/21 5:52,1.6,15,1.8,15,2.2,1
2015/5/21 5:53,1.4,15,1.6,15,1.3,12
2015/5/21 5:54,1.2,15,1.4,15,1.4,11
2015/5/21 5:55,1.2,14,1.2,15,1.8,12
2015/5/21 5:56,1.1,14,1.2,15,1,10
2015/5/21 5:57,1,14,1,15,1.8,16
2015/5/21 5:58,1,14,1,15,1.8,14
2015/5/21 5:59,1,14,1,15,2.2,1
2015/5/21 6:00,1,14,1,15,1.1,7
2015/5/21 6:01,1,14,1,15,2.1,10
2015/5/21 6:02,1,13,1,15,1.8,12
2015/5/21 6:03,1.1,13,1.1,15,3.5,11
2015/5/21 6:04,1.4,13,1.4,13,4.7,13
2015/5/21 6:05,1.5,13,1.5,13,3.5,12
2015/5/21 6:06,1.6,13,1.6,13,3.1,11
2015/5/21 6:07,1.6,13,1.6,13,1.4,12
2015/5/21 6:08,1.6,12,1.6,13,3,12
2015/5/21 6:09,1.6,12,1.6,13,1.3,12
2015/5/21 6:10,1.6,12,1.6,13,3.3,12
2015/5/21 6:11,1.7,12,1.7,12,3.7,12
2015/5/21 6:12,1.7,12,1.7,12,2,9
2015/5/21 6:13,1.6,12,1.7,12,3.8,12
2015/5/21 6:14,1.5,12,1.6,12,2.5,11
2015/5/21 6:15,1.4,12,1.4,12,2.2,15
2015/5/21 6:16,1.2,12,1.3,12,1.1,4
2015/5/21 6:17,1.2,12,1.2,12,1.1,4
2015/5/21 6:18,1.1,12,1.2,12,1.1,3
2015/5/21 6:19,1.1,14,1.1,12,1,3
2015/5/21 6:20,1.1,16,1.1,12,1,1
2015/5/21 6:21,0.9,16,1,12,0.5,10
2015/5/21 6:22,0.8,2,0.9,12,2.1,9
2015/5/21 6:23,0.8,3,0.8,12,1.9,10
2015/5/21 6:24,0.8,4,0.8,12,2.7,9
2015/5/21 6:25,0.9,6,0.9,12,4.1,9
2015/5/21 6:26,1.1,8,1.1,12,3.3,10
2015/5/21 6:27,1.1,9,1.1,12,2.4,9
2015/5/21 6:28,1.2,9,1.2,9,2.4,7
2015/5/21 6:29,1.3,9,1.3,9,2.7,9
2015/5/21 6:30,1.3,9,1.3,9,2,6
2015/5/21 6:31,1.5,8,1.5,9,2.1,6
2015/5/21 6:32,1.6,8,1.6,8,2.4,7
2015/5/21 6:33,1.7,8,1.7,8,2.5,6
2015/5/21 6:34,1.9,8,1.9,8,3.1,7
2015/5/21 6:35,1.8,7,1.9,8,3.3,7
2015/5/21 6:36,1.7,7,1.8,8,2.4,6
2015/5/21 6:37,1.7,7,1.7,8,3.2,6
2015/5/21 6:38,1.8,6,1.8,8,3.6,5
2015/5/21 6:39,2,6,2,6,3.9,4
2015/5/21 6:40,2.1,6,2.1,6,3.5,5
2015/5/21 6:41,2.1,6,2.1,6,3.3,6
2015/5/21 6:42,2.2,6,2.2,6,3.2,6
2015/5/21 6:43,2.1,6,2.2,6,2,6
2015/5/21 6:44,1.9,6,2.1,6,1.8,6
2015/5/21 6:45,1.9,6,1.9,6,1.9,7
2015/5/21 6:46,1.8,6,1.9,6,1.5,9
2015/5/21 6:47,1.7,7,1.8,6,1.9,9
2015/5/21 6:48,1.7,7,1.7,6,2.6,7
2015/5/21 6:49,1.5,7,1.6,6,2.4,8
2015/5/21 6:50,1.4,7,1.5,6,1.6,6
2015/5/21 6:51,1.2,7,1.4,6,1.4,6
2015/5/21 6:52,1.1,7,1.2,6,1.5,6
2015/5/21 6:53,1.1,7,1.1,6,1.8,6
2015/5/21 6:54,1.1,7,1.1,6,2.4,6
2015/5/21 6:55,1.2,6,1.2,6,2.6,5
2015/5/21 6:56,1.2,6,1.2,6,2.9,6
2015/5/21 6:57,1.3,6,1.3,7,2.9,6
2015/5/21 6:58,1.4,6,1.4,7,2.9,6
2015/5/21 6:59,1.2,6,1.4,7,1.9,7
2015/5/21 7:00,1.2,6,1.2,7,2.2,8
2015/5/21 7:01,1.3,6,1.3,6,2.1,7
2015/5/21 7:02,1.2,6,1.3,6,1.8,7
2015/5/21 7:03,1.3,7,1.3,6,2.7,7
2015/5/21 7:04,1.4,7,1.4,6,3.6,8
2015/5/21 7:05,1.4,7,1.4,6,2.5,6
2015/5/21 7:06,1.3,7,1.4,6,2.5,8
2015/5/21 7:07,1.4,7,1.4,6,3.2,7
2015/5/21 7:08,1.4,7,1.4,6,3.3,7
2015/5/21 7:09,1.6,7,1.6,7,3.6,6
2015/5/21 7:10,1.7,7,1.7,7,3.7,8
2015/5/21 7:11,1.9,7,1.9,7,3.7,8
2015/5/21 7:12,2,7,2,7,3,8
2015/5/21 7:13,2,8,2.1,7,2.6,9
2015/5/21 7:14,1.9,8,2,7,1.9,9
2015/5/21 7:15,2,8,2,7,3.6,9
2015/5/21 7:16,2,8,2,7,3.5,9
2015/5/21 7:17,2,8,2,7,3,8
2015/5/21 7:18,1.9,8,2,7,2.6,8
2015/5/21 7:19,1.9,8,1.9,7,2.1,7
2015/5/21 7:20,1.8,8,1.9,7,2.5,7
2015/5/21 7:21,1.7,8,1.8,7,1.8,8
2015/5/21 7:22,1.6,8,1.7,7,2.9,8
2015/5/21 7:23,1.6,8,1.6,8,3.1,7
2015/5/21 7:24,1.7,8,1.7,8,3.3,9
2015/5/21 7:25,1.7,8,1.7,8,2.9,8
2015/5/21 7:26,1.7,8,1.7,8,2.7,8
2015/5/21 7:27,1.6,8,1.7,8,2.2,8
2015/5/21 7:28,1.6,8,1.6,8,2.5,8
2015/5/21 7:29,1.7,8,1.7,8,3.8,10
2015/5/21 7:30,1.7,8,1.7,8,3.2,8
2015/5/21 7:31,1.8,8,1.8,8,2.9,9
2015/5/21 7:32,1.8,9,1.8,8,2.6,8
2015/5/21 7:33,1.8,9,1.8,8,2.5,9
2015/5/21 7:34,1.8,9,1.8,8,3.5,9
2015/5/21 7:35,1.8,9,1.8,8,3.8,8
2015/5/21 7:36,1.8,9,1.8,8,2.5,9
2015/5/21 7:37,1.8,9,1.8,8,3.7,8
2015/5/21 7:38,1.9,9,1.9,9,3.1,8
2015/5/21 7:39,1.8,9,1.9,9,3.6,9
2015/5/21 7:40,1.9,9,1.9,9,4.1,8
2015/5/21 7:41,1.8,9,1.8,9,2.9,7
2015/5/21 7:42,1.9,8,1.9,9,3.8,8
2015/5/21 7:43,1.9,8,2,8,4.1,9
2015/5/21 7:44,2,8,2,8,4.2,8
2015/5/21 7:45,2,8,2,8,3.7,8
2015/5/21 7:46,2.2,8,2.2,8,4.1,8
2015/5/21 7:47,2.2,8,2.2,8,3.1,10
2015/5/21 7:48,2.2,8,2.2,8,3.1,9
2015/5/21 7:49,2.3,8,2.3,8,3.9,10
2015/5/21 7:50,2.3,9,2.3,8,4.1,9
2015/5/21 7:51,2.3,9,2.4,9,3.5,9
2015/5/21 7:52,2.4,9,2.4,9,3.9,9
2015/5/21 7:53,2.5,9,2.5,9,4.3,9
2015/5/21 7:54,2.5,9,2.5,9,3.9,9
2015/5/21 7:55,2.5,9,2.5,9,4.4,8
2015/5/21 7:56,2.5,9,2.5,9,4.7,9
2015/5/21 7:57,2.5,9,2.6,9,3.8,9
2015/5/21 7:58,2.5,9,2.6,9,3.6,9
2015/5/21 7:59,2.5,9,2.5,9,4.9,9
2015/5/21 8:00,2.6,9,2.6,9,4.5,10
2015/5/21 8:01,2.7,9,2.7,9,3.8,10
2015/5/21 8:02,2.7,9,2.7,9,4.3,7
2015/5/21 8:03,2.7,9,2.7,9,3.8,9
2015/5/21 8:04,2.7,9,2.7,9,3.9,9
2015/5/21 8:05,2.7,9,2.7,9,4.1,9
2015/5/21 8:06,2.6,9,2.7,9,3.3,9
2015/5/21 8:07,2.6,9,2.6,9,3.3,8
2015/5/21 8:08,2.7,9,2.7,9,3.6,9
2015/5/21 8:09,2.7,9,2.7,9,3.7,9
2015/5/21 8:10,2.6,9,2.7,9,5,8
2015/5/21 8:11,2.6,9,2.6,9,3.7,7
2015/5/21 8:12,2.4,9,2.6,9,3.9,8
2015/5/21 8:13,2.4,9,2.5,9,4.2,9
2015/5/21 8:14,2.4,9,2.4,9,4.5,9
2015/5/21 8:15,2.4,9,2.4,9,4.2,8
2015/5/21 8:16,2.4,9,2.4,9,3.9,9
2015/5/21 8:17,2.5,9,2.5,9,4.4,8
2015/5/21 8:18,2.6,9,2.6,9,5.2,10
2015/5/21 8:19,2.5,9,2.6,9,3.2,9
2015/5/21 8:20,2.4,9,2.6,9,3.6,9
2015/5/21 8:21,2.5,9,2.5,9,5,8
2015/5/21 8:22,2.6,9,2.7,9,5.2,8
2015/5/21 8:23,2.7,9,2.7,9,4.7,8
2015/5/21 8:24,2.6,9,2.7,9,3,8
2015/5/21 8:25,2.5,9,2.6,9,1.6,8
2015/5/21 8:26,2.3,9,2.5,9,3.1,9
2015/5/21 8:27,2.2,9,2.3,9,3.5,7
2015/5/21 8:28,2,9,2.2,9,2.4,8
2015/5/21 8:29,2,9,2,9,3.7,6
2015/5/21 8:30,1.9,8,2,9,3,9
2015/5/21 8:31,1.7,8,1.9,9,4.9,10
2015/5/21 8:32,1.8,9,1.8,9,5,10
2015/5/21 8:33,1.7,9,1.8,9,5,9
2015/5/21 8:34,1.7,9,1.8,9,3.7,9
2015/5/21 8:35,1.9,9,1.9,9,4.5,8
2015/5/21 8:36,2,9,2,9,3.7,9
2015/5/21 8:37,1.9,9,2,9,3,9
2015/5/21 8:38,2,9,2,9,2.6,9
2015/5/21 8:39,2,9,2,9,3.9,8
2015/5/21 8:40,2.1,8,2.1,8,2.1,7
2015/5/21 8:41,2.2,8,2.2,8,3.2,7
2015/5/21 8:42,2,8,2.2,8,3.1,8
2015/5/21 8:43,2.1,8,2.1,8,4.4,8
2015/5/21 8:44,2.1,8,2.1,8,3.5,9
2015/5/21 8:45,2.1,8,2.1,8,3.3,7
2015/5/21 8:46,2,8,2.1,8,2.9,9
2015/5/21 8:47,1.9,8,2,8,1.1,5
2015/5/21 8:48,1.8,8,1.8,8,2.1,10
2015/5/21 8:49,1.8,8,1.8,8,2.6,7
2015/5/21 8:50,1.9,8,1.9,8,4.2,9
2015/5/21 8:51,2,8,2,8,5,8
2015/5/21 8:52,2,9,2,8,4.1,9
2015/5/21 8:53,1.8,9,2,8,2.6,9
2015/5/21 8:54,1.8,9,1.8,8,3.5,9
2015/5/21 8:55,1.7,9,1.8,8,2.6,8
2015/5/21 8:56,1.8,8,1.8,8,3.1,7
2015/5/21 8:57,2,8,2,8,3.7,7
2015/5/21 8:58,2.1,8,2.1,8,4.1,8
2015/5/21 8:59,2.1,8,2.1,8,2.7,6
2015/5/21 9:00,1.9,8,2.1,8,3,9
2015/5/21 9:01,1.7,8,1.9,8,2,9
2015/5/21 9:02,1.5,8,1.7,8,1.1,9
2015/5/21 9:03,1.5,8,1.5,8,2.5,10
2015/5/21 9:04,1.4,8,1.5,8,2.7,11
2015/5/21 9:05,1.4,9,1.4,8,2.4,8
2015/5/21 9:06,1.3,9,1.4,8,1.3,8
2015/5/21 9:07,1.2,9,1.2,8,3.2,8
2015/5/21 9:08,1.2,9,1.2,8,3.3,7
2015/5/21 9:09,1.2,10,1.3,8,3.8,9
2015/5/21 9:10,1.2,9,1.3,8,2.9,8
2015/5/21 9:11,1.2,9,1.2,8,2.2,7
2015/5/21 9:12,1.4,9,1.4,8,3.6,8
2015/5/21 9:13,1.5,8,1.5,8,3.8,8
2015/5/21 9:14,1.5,8,1.5,9,2.2,8
2015/5/21 9:15,1.5,8,1.5,9,2.4,8
2015/5/21 9:16,1.5,8,1.5,9,1.4,5
2015/5/21 9:17,1.5,7,1.5,9,1.6,6
2015/5/21 9:18,1.4,7,1.5,9,1.9,5
2015/5/21 9:19,1.4,7,1.4,9,4.1,6
2015/5/21 9:20,1.5,7,1.5,9,3.5,9
2015/5/21 9:21,1.5,7,1.5,9,3.7,8
2015/5/21 9:22,1.6,7,1.6,7,3.7,7
2015/5/21 9:23,1.6,7,1.6,7,3.3,8
2015/5/21 9:24,1.6,7,1.6,7,2.1,7
2015/5/21 9:25,1.6,7,1.6,7,2,5
2015/5/21 9:26,1.7,7,1.7,7,2.6,6
2015/5/21 9:27,1.7,7,1.7,7,3,6
2015/5/21 9:28,1.8,7,1.8,7,2.9,7
2015/5/21 9:29,1.7,7,1.8,7,1.9,6
2015/5/21 9:30,1.5,6,1.7,7,1.4,3
2015/5/21 9:31,1.4,6,1.5,7,1.8,3
2015/5/21 9:32,1.4,5,1.4,7,2.5,2
2015/5/21 9:33,1.3,5,1.3,7,2.7,3
2015/5/21 9:34,1.2,4,1.3,7,1,16
2015/5/21 9:35,1.1,4,1.2,7,1.1,7
2015/5/21 9:36,1.1,4,1.1,7,2.9,11
2015/5/21 9:37,1.1,4,1.1,7,4.2,7
2015/5/21 9:38,1.1,3,1.1,7,4.1,9
2015/5/21 9:39,1.2,4,1.2,7,3.5,7
2015/5/21 9:40,1.3,5,1.3,6,3.5,7
2015/5/21 9:41,1.5,6,1.5,5,3.8,7
2015/5/21 9:42,1.6,7,1.6,6,3.6,8
2015/5/21 9:43,1.6,7,1.6,6,4.5,8
2015/5/21 9:44,1.8,8,1.8,8,3,8
2015/5/21 9:45,2,8,2,8,3.5,7
2015/5/21 9:46,2.1,8,2.1,8,3.2,8
2015/5/21 9:47,2,8,2.1,8,2.5,7
2015/5/21 9:48,2,8,2,8,2.6,9
2015/5/21 9:49,2,8,2,8,3.1,9
2015/5/21 9:50,1.8,8,2,8,1.4,10
2015/5/21 9:51,1.7,8,1.8,8,2.5,6
2015/5/21 9:52,1.7,8,1.7,8,2.7,5
2015/5/21 9:53,1.7,7,1.7,8,2.4,7
2015/5/21 9:54,1.7,7,1.7,8,4.1,8
2015/5/21 9:55,1.7,7,1.7,8,4.5,9
2015/5/21 9:56,1.7,8,1.7,8,3,8
2015/5/21 9:57,1.8,7,1.8,8,4.1,9
2015/5/21 9:58,1.8,7,1.9,8,3,8
2015/5/21 9:59,1.8,7,1.8,8,3,7
2015/5/21 10:00,2.1,7,2.1,7,4.5,8
2015/5/21 10:01,2.1,7,2.1,7,2.9,6
2015/5/21 10:02,2.1,7,2.1,7,3.5,7
2015/5/21 10:03,2.3,8,2.3,8,4.1,7
2015/5/21 10:04,2.2,8,2.3,8,4.5,9
2015/5/21 10:05,2.3,8,2.3,8,4.1,9
2015/5/21 10:06,2.3,8,2.3,8,3.9,8
2015/5/21 10:07,2.4,8,2.4,8,3.9,10
2015/5/21 10:08,2.5,8,2.5,8,4.8,9
2015/5/21 10:09,2.5,9,2.6,8,4.7,10
2015/5/21 10:10,2.3,9,2.5,8,2.6,8
2015/5/21 10:11,2.3,9,2.3,8,2.2,7
2015/5/21 10:12,2.2,9,2.3,8,1.5,10
2015/5/21 10:13,2,8,2.2,8,1.1,8
2015/5/21 10:14,1.9,8,2,8,2.4,8
2015/5/21 10:15,1.9,8,1.9,8,3.6,6
2015/5/21 10:16,1.8,8,1.9,8,2.1,6
2015/5/21 10:17,1.6,7,1.8,8,1.5,5
2015/5/21 10:18,1.4,7,1.6,8,2.5,8
2015/5/21 10:19,1.3,7,1.3,9,3.1,8
2015/5/21 10:20,1.4,7,1.4,9,3.6,9
2015/5/21 10:21,1.5,7,1.5,9,3.5,8
2015/5/21 10:22,1.4,7,1.5,9,1.9,7
2015/5/21 10:23,1.4,7,1.4,8,2,9
2015/5/21 10:24,1.3,7,1.4,8,2,7
2015/5/21 10:25,1.2,7,1.3,8,1.3,7
2015/5/21 10:26,1.1,7,1.2,7,1.4,8
2015/5/21 10:27,1.1,8,1.1,7,2.5,6
2015/5/21 10:28,1.2,8,1.2,7,2.9,5
2015/5/21 10:29,1.1,8,1.2,7,2.2,9
2015/5/21 10:30,1.1,8,1.1,7,5,10
2015/5/21 10:31,1.2,8,1.2,7,5.1,10
2015/5/21 10:32,1.3,9,1.3,7,3.6,9
2015/5/21 10:33,1.4,9,1.4,7,4.4,9
2015/5/21 10:34,1.5,9,1.5,9,3.3,8
2015/5/21 10:35,1.8,9,1.8,9,5.6,8
2015/5/21 10:36,2,9,2,9,5.2,8
2015/5/21 10:37,2.2,9,2.2,9,4.3,8
2015/5/21 10:38,2.2,9,2.2,9,4.1,10
2015/5/21 10:39,2.4,9,2.4,9,4.8,9
2015/5/21 10:40,2.3,9,2.4,9,2.9,8
2015/5/21 10:41,2.2,9,2.3,9,3.5,8
2015/5/21 10:42,2.3,9,2.3,9,4.3,8
2015/5/21 10:43,2.3,9,2.3,9,3.7,10
2015/5/21 10:44,2.4,9,2.4,9,4.7,9
2015/5/21 10:45,2.3,9,2.4,9,3.6,7
2015/5/21 10:46,2.2,8,2.3,9,3.6,8
2015/5/21 10:47,2.1,8,2.2,9,3,10
2015/5/21 10:48,2.2,8,2.2,9,5.8,9
2015/5/21 10:49,2.1,8,2.2,9,3.2,7
2015/5/21 10:50,2.3,8,2.3,9,4.8,7
2015/5/21 10:51,2.4,8,2.4,9,4.9,9
2015/5/21 10:52,2.4,8,2.4,9,3.9,8
2015/5/21 10:53,2.5,8,2.5,8,4.1,8
2015/5/21 10:54,2.5,8,2.5,8,4.3,7
2015/5/21 10:55,2.4,8,2.5,8,2.9,10
2015/5/21 10:56,2.2,8,2.4,8,2.1,9
2015/5/21 10:57,2.2,8,2.2,8,2.2,9
2015/5/21 10:58,2,8,2.2,8,2.9,8
2015/5/21 10:59,2,9,2,8,5.2,9
2015/5/21 11:00,1.8,9,2,8,2.6,8
2015/5/21 11:01,1.6,9,1.8,8,2.2,8
2015/5/21 11:02,1.4,9,1.6,8,1.1,7
2015/5/21 11:03,1.2,9,1.4,8,2.4,8
2015/5/21 11:04,1.2,10,1.3,8,3.5,10
2015/5/21 11:05,1.2,10,1.3,8,3,10
2015/5/21 11:06,1.3,10,1.3,8,4.2,10
2015/5/21 11:07,1.4,10,1.4,8,2.2,11
2015/5/21 11:08,1.4,11,1.4,8,1.6,12
2015/5/21 11:09,1.3,11,1.4,9,1.3,14
2015/5/21 11:10,1.3,11,1.3,9,3,11
2015/5/21 11:11,1.4,12,1.4,9,3.1,11
2015/5/21 11:12,1.5,12,1.5,12,2.4,9
2015/5/21 11:13,1.6,12,1.6,12,3.9,8
2015/5/21 11:14,1.5,11,1.6,12,3.5,9
2015/5/21 11:15,1.6,11,1.6,12,3.5,8
2015/5/21 11:16,1.6,11,1.6,12,3.6,8
2015/5/21 11:17,1.6,10,1.6,12,3.5,9
2015/5/21 11:18,1.6,10,1.6,12,2.4,8
2015/5/21 11:19,1.7,9,1.7,9,2.1,8
2015/5/21 11:20,1.8,9,1.8,9,5.4,8
2015/5/21 11:21,1.8,8,1.8,9,3.7,8